When you browse on this site, cookies collect data to enhance your experience and personalize the content and advertising you see.
Visit our Privacy Policy to learn more. By continuing to use the site, you agree to this use of cookies and data.
  • In Lithuania
  • List of Countries
  • For 7 days
  • Water Temperature
  • Satellite Maps
  • Weather Map
  • Weather Widgets
  • user-avatar
    Login

    Hourly Weather Hanoi

    Today, 22 April, Monday

    Time Temperature Precipitation Wind Pressure Humidity
    00:00 +29°C° 0 mm 2 mps 753 mmHg 91%
    01:00 +29°C° 0 mm 2 mps 753 mmHg 92%
    02:00 +29°C° 0 mm 2 mps 753 mmHg 92%
    03:00 +29°C° 0 mm 2 mps 753 mmHg 92%
    04:00 +28°C° 0 mm 2 mps 752 mmHg 92%
    05:00 +29°C° 0 mm 2 mps 753 mmHg 91%
    06:00 +29°C° 0 mm 2 mps 753 mmHg 89%
    07:00 +30°C° 0 mm 2 mps 753 mmHg 87%
    08:00 +31°C° 0 mm 2 mps 754 mmHg 80%
    09:00 +34°C° 0 mm 2 mps 754 mmHg 74%
    10:00 +35°C° 0 mm 2 mps 754 mmHg 67%
    11:00 +37°C° 0 mm 3 mps 753 mmHg 59%
    12:00 +39°C° 0 mm 3 mps 753 mmHg 52%
    13:00 +42°C° 0 mm 3 mps 752 mmHg 43%
    14:00 +41°C° 0 mm 4 mps 752 mmHg 46%
    15:00 +40°C° 0 mm 5 mps 752 mmHg 50%
    16:00 +40°C° 0 mm 6 mps 751 mmHg 53%
    17:00 +38°C° 0 mm 6 mps 752 mmHg 61%
    18:00 +34°C° 0 mm 5 mps 752 mmHg 69%
    19:00 +32°C° 0 mm 4 mps 752 mmHg 78%
    20:00 +30°C° 0 mm 4 mps 753 mmHg 80%
    21:00 +30°C° 0 mm 3 mps 753 mmHg 82%
    22:00 +29°C° 0 mm 3 mps 754 mmHg 84%
    23:00 +29°C° 0 mm 3 mps 754 mmHg 85%

    Tomorrow, 23 April, Tuesday

    Time Temperature Precipitation Wind Pressure Humidity
    00:00 +29°C° 0 mm 3 mps 754 mmHg 87%
    01:00 +29°C° 0 mm 2 mps 754 mmHg 88%
    02:00 +28°C° 0 mm 2 mps 754 mmHg 89%
    03:00 +28°C° 0 mm 2 mps 754 mmHg 90%
    04:00 +28°C° 0 mm 2 mps 754 mmHg 91%
    05:00 +28°C° 0.1 mm 2 mps 754 mmHg 91%
    06:00 +29°C° 0.1 mm 2 mps 754 mmHg 90%
    07:00 +29°C° 0.1 mm 2 mps 755 mmHg 89%
    08:00 +30°C° 0.1 mm 2 mps 755 mmHg 86%
    09:00 +30°C° 0.1 mm 3 mps 756 mmHg 84%
    10:00 +31°C° 0.1 mm 3 mps 756 mmHg 81%
    11:00 +33°C° 0 mm 3 mps 755 mmHg 77%
    12:00 +34°C° 0 mm 3 mps 755 mmHg 72%
    13:00 +35°C° 0 mm 3 mps 755 mmHg 68%
    14:00 +36°C° 0 mm 3 mps 754 mmHg 67%
    15:00 +36°C° 0 mm 4 mps 754 mmHg 65%
    16:00 +36°C° 0 mm 4 mps 753 mmHg 64%
    17:00 +35°C° 0 mm 4 mps 753 mmHg 69%
    18:00 +33°C° 0 mm 4 mps 753 mmHg 75%
    19:00 +32°C° 0 mm 4 mps 754 mmHg 80%
    20:00 +30°C° 0 mm 4 mps 754 mmHg 83%
    21:00 +30°C° 0 mm 4 mps 755 mmHg 85%
    22:00 +29°C° 0 mm 3 mps 755 mmHg 88%
    23:00 +29°C° 0 mm 3 mps 755 mmHg 89%

    Day after tomorrow, 24 April, Wednesday

    Time Temperature Precipitation Wind Pressure Humidity
    00:00 +29°C° 0 mm 3 mps 755 mmHg 91%
    01:00 +28°C° 0 mm 2 mps 755 mmHg 92%
    02:00 +28°C° 0 mm 2 mps 755 mmHg 92%
    03:00 +28°C° 0 mm 2 mps 755 mmHg 92%
    04:00 +28°C° 0 mm 2 mps 754 mmHg 93%
    05:00 +29°C° 0 mm 2 mps 755 mmHg 91%
    06:00 +29°C° 0 mm 2 mps 755 mmHg 90%
    07:00 +29°C° 0 mm 2 mps 755 mmHg 88%
    08:00 +30°C° 0 mm 2 mps 755 mmHg 84%
    09:00 +32°C° 0 mm 2 mps 756 mmHg 79%
    10:00 +34°C° 0 mm 2 mps 756 mmHg 74%
    11:00 +35°C° 0 mm 2 mps 755 mmHg 69%
    12:00 +36°C° 0 mm 2 mps 755 mmHg 64%
    13:00 +38°C° 0 mm 2 mps 754 mmHg 59%
    14:00 +38°C° 0 mm 3 mps 753 mmHg 60%
    15:00 +38°C° 0 mm 4 mps 753 mmHg 61%
    16:00 +39°C° 0 mm 5 mps 752 mmHg 62%
    17:00 +36°C° 0.1 mm 5 mps 752 mmHg 68%
    18:00 +34°C° 0.1 mm 5 mps 752 mmHg 75%
    19:00 +32°C° 0.1 mm 4 mps 753 mmHg 81%
    20:00 +30°C° 0.5 mm 4 mps 753 mmHg 83%
    21:00 +30°C° 0.5 mm 4 mps 754 mmHg 86%
    22:00 +29°C° 0.5 mm 3 mps 755 mmHg 88%
    23:00 +29°C° 0 mm 3 mps 754 mmHg 88%

    25 April, Thursday

    Time Temperature Precipitation Wind Pressure Humidity
    00:00 +29°C° 0 mm 3 mps 754 mmHg 87%
    01:00 +29°C° 0 mm 2 mps 754 mmHg 87%
    02:00 +28°C° 0 mm 2 mps 754 mmHg 89%
    03:00 +28°C° 0 mm 2 mps 753 mmHg 91%
    04:00 +28°C° 0 mm 2 mps 753 mmHg 93%
    05:00 +28°C° 0 mm 2 mps 754 mmHg 91%
    06:00 +29°C° 0 mm 2 mps 754 mmHg 89%
    07:00 +29°C° 0 mm 2 mps 755 mmHg 88%
    08:00 +30°C° 0 mm 2 mps 755 mmHg 81%
    09:00 +32°C° 0 mm 2 mps 755 mmHg 75%
    10:00 +34°C° 0 mm 3 mps 755 mmHg 68%
    11:00 +36°C° 0 mm 3 mps 755 mmHg 64%
    12:00 +37°C° 0 mm 3 mps 754 mmHg 60%
    13:00 +38°C° 0 mm 3 mps 754 mmHg 56%
    14:00 +38°C° 0 mm 4 mps 753 mmHg 58%
    15:00 +37°C° 0 mm 4 mps 752 mmHg 59%
    16:00 +37°C° 0 mm 5 mps 752 mmHg 61%
    17:00 +35°C° 0.3 mm 5 mps 752 mmHg 67%
    18:00 +33°C° 0.3 mm 5 mps 752 mmHg 74%
    19:00 +30°C° 0.3 mm 5 mps 752 mmHg 81%
    20:00 +30°C° 0.4 mm 5 mps 753 mmHg 84%
    21:00 +29°C° 0.4 mm 4 mps 754 mmHg 87%
    22:00 +29°C° 0.4 mm 3 mps 755 mmHg 89%
    23:00 +29°C° 0 mm 3 mps 755 mmHg 90%

    26 April, Friday

    Time Temperature Precipitation Wind Pressure Humidity
    00:00 +29°C° 0 mm 3 mps 754 mmHg 90%
    01:00 +29°C° 0 mm 3 mps 754 mmHg 90%
    02:00 +28°C° 0 mm 3 mps 754 mmHg 91%
    03:00 +28°C° 0 mm 2 mps 753 mmHg 93%
    04:00 +28°C° 0 mm 2 mps 753 mmHg 94%
    05:00 +28°C° 0 mm 2 mps 754 mmHg 92%
    06:00 +29°C° 0 mm 2 mps 754 mmHg 90%
    07:00 +29°C° 0 mm 2 mps 754 mmHg 88%
    08:00 +30°C° 0.1 mm 3 mps 755 mmHg 85%
    09:00 +30°C° 0.1 mm 3 mps 755 mmHg 82%
    10:00 +31°C° 0.1 mm 3 mps 756 mmHg 79%
    11:00 +33°C° 0 mm 3 mps 755 mmHg 76%
    12:00 +34°C° 0 mm 3 mps 754 mmHg 74%
    13:00 +34°C° 0 mm 3 mps 754 mmHg 71%
    14:00 +34°C° 0 mm 4 mps 753 mmHg 70%
    15:00 +34°C° 0 mm 5 mps 752 mmHg 70%
    16:00 +35°C° 0 mm 5 mps 751 mmHg 70%
    17:00 +34°C° 0 mm 5 mps 752 mmHg 73%
    18:00 +33°C° 0 mm 6 mps 753 mmHg 76%
    19:00 +30°C° 0 mm 6 mps 754 mmHg 80%
    20:00 +30°C° 0.1 mm 5 mps 754 mmHg 81%
    21:00 +30°C° 0.1 mm 4 mps 755 mmHg 82%
    22:00 +29°C° 0.1 mm 4 mps 756 mmHg 82%
    23:00 +29°C° 0 mm 3 mps 755 mmHg 84%

    27 April, Saturday

    Time Temperature Precipitation Wind Pressure Humidity
    00:00 +28°C° 0 mm 3 mps 755 mmHg 86%
    01:00 +28°C° 0 mm 2 mps 755 mmHg 88%
    02:00 +28°C° 0 mm 2 mps 754 mmHg 90%
    03:00 +27°C° 0 mm 2 mps 754 mmHg 92%
    04:00 +27°C° 0 mm 1 mps 754 mmHg 94%
    05:00 +28°C° 0 mm 2 mps 755 mmHg 91%
    06:00 +28°C° 0 mm 2 mps 755 mmHg 88%
    07:00 +29°C° 0 mm 2 mps 756 mmHg 86%
    08:00 +30°C° 0 mm 3 mps 756 mmHg 77%
    09:00 +33°C° 0 mm 3 mps 756 mmHg 67%
    10:00 +35°C° 0 mm 4 mps 756 mmHg 58%
    11:00 +35°C° 0 mm 4 mps 756 mmHg 57%
    12:00 +36°C° 0 mm 5 mps 755 mmHg 56%
    13:00 +37°C° 0 mm 5 mps 754 mmHg 56%
    14:00 +36°C° 0 mm 6 mps 754 mmHg 58%
    15:00 +36°C° 0 mm 6 mps 753 mmHg 60%
    16:00 +35°C° 0 mm 6 mps 753 mmHg 62%
    17:00 +34°C° 0 mm 6 mps 753 mmHg 67%
    18:00 +33°C° 0 mm 5 mps 754 mmHg 71%
    19:00 +30°C° 0 mm 4 mps 755 mmHg 76%
    20:00 +30°C° 0 mm 4 mps 755 mmHg 78%
    21:00 +29°C° 0 mm 3 mps 755 mmHg 81%
    22:00 +29°C° 0 mm 2 mps 755 mmHg 83%
    23:00 +28°C° 0 mm 2 mps 755 mmHg 84%
    Show more